Details for Ryanair at EDDK




Go Back


Latest METAR
Local Time

EDDK 160920Z 24006KT 180V290 9999 FEW032 SCT280 23/14 Q1017 NOSIG
16/08/2018, 11:48:48

Description
Results
Ryanair Logo
Number of Pilots based at EDDK
0 Pilots Based here
Number of Ryanair Flights Departed from EDDK
6 Flights Departed
Number of Ryanair Flights Arrived at EDDK
6 Flights Arrived
Number of Ryanair Schedules Departing from EDDK
50 Schedules
Number of Ryanair Schedules Arriving at EDDK
50 Schedules
Number of Ryanair Schedules Departing from EDDK availible today
23 Schedules Today
Number of Ryanair Schedules Arriving at EDDK availible today
23 Schedules Today
Average Landing Rate at EDDK
-132 fpm
Ryanair Average Landing Rate at EDDK
-142 fpm
Total Fuel Purchased at EDDK by Ryanair
23,070.62 kgs / 50,861.49 lbs

Pilots Based at EDDK


Pilot ID
Pilot Name
Pilot Rank
No. of Flights
No. of Flying Hours
There are no pilots assigned to this hub!   Will you be the first?
Content